N1BFO Weather Reports


Display with metric or nautical units.
time (UTC)temp
F
wind
direction
speed
MPH
gust
MPH
rain 1hr
in
rain 24hr
in
rain mn
in
humidity
%
barometer
mb
20260503002028 50 335 0.0 2.0 0.00 0.12 0.12 87 1010.2
20260503001553 50 0 0.0 2.0 0.00 0.12 0.12 87 1010.2
20260503001028 50 0 0.0 4.0 0.00 0.12 0.12 87 1010.2
20260503000528 50 8 1.0 4.0 0.00 0.12 0.12 87 1010.2
20260503000038 50 304 1.0 3.0 0.00 0.12 0.12 86 1010.1
20260502235527 50 7 0.0 1.0 0.00 0.12 0.12 85 1010.0
20260502235027 50 8 0.0 1.0 0.00 0.12 0.12 85 1010.0
20260502234541 50 0 0.0 0.0 0.00 0.12 0.12 84 1009.9
20260502234028 50 0 0.0 0.0 0.00 0.12 0.12 83 1009.9
20260502233526 50 0 0.0 0.0 0.00 0.12 0.12 83 1009.9
20260502233045 50 0 0.0 0.0 0.00 0.12 0.12 83 1009.9
20260502232527 50 0 0.0 0.0 0.00 0.12 0.12 83 1009.9
20260502232027 51 0 0.0 1.0 0.00 0.12 0.12 82 1009.9
20260502231536 51 0 0.0 1.0 0.00 0.12 0.12 81 1009.9
20260502231027 51 252 0.0 0.0 0.00 0.12 0.12 81 1009.8
20260502230527 51 0 0.0 1.0 0.00 0.12 0.12 81 1009.8
20260502230045 51 0 0.0 1.0 0.00 0.12 0.12 81 1009.7
20260502225530 51 0 0.0 1.0 0.00 0.12 0.12 81 1009.7
20260502225029 51 0 0.0 2.0 0.00 0.12 0.12 81 1009.5
20260502224541 51 0 0.0 2.0 0.00 0.12 0.12 81 1009.4
20260502224025 51 134 0.0 1.0 0.00 0.12 0.12 81 1009.4
20260502223528 51 0 0.0 1.0 0.00 0.12 0.12 81 1009.3
20260502223042 51 152 0.0 1.0 0.00 0.12 0.12 81 1009.4
20260502222529 51 0 0.0 0.0 0.00 0.12 0.12 83 1009.4
20260502222027 50 0 0.0 0.0 0.00 0.12 0.12 83 1009.5
20260502221542 50 0 0.0 0.0 0.00 0.12 0.12 83 1009.5
20260502221025 50 160 0.0 0.0 0.00 0.12 0.12 83 1009.6
20260502220527 50 161 0.0 0.0 0.00 0.12 0.12 84 1009.6
20260502220045 50 0 0.0 0.0 0.00 0.12 0.12 84 1009.6
20260502215529 50 0 0.0 0.0 0.00 0.12 0.12 83 1009.6
20260502215027 51 0 0.0 1.0 0.00 0.12 0.12 83 1009.6
20260502214542 51 0 0.0 2.0 0.00 0.12 0.12 82 1009.7
20260502214029 51 20 0.0 3.0 0.00 0.12 0.12 83 1009.7
20260502213527 51 0 0.0 3.0 0.00 0.12 0.12 82 1009.7
20260502213045 51 0 0.0 3.0 0.00 0.12 0.12 80 1009.7
20260502212532 51 0 0.0 3.0 0.00 0.12 0.12 78 1009.9
20260502212027 52 0 0.0 3.0 0.00 0.12 0.12 77 1009.9
20260502211543 52 0 0.0 5.0 0.00 0.12 0.12 75 1009.9
20260502211030 52 149 0.0 5.0 0.00 0.12 0.12 74 1009.8
20260502210525 53 96 1.0 5.0 0.00 0.12 0.12 73 1009.8
20260502210049 53 164 0.0 2.0 0.00 0.12 0.12 73 1009.7
20260502205527 53 16 0.0 2.0 0.00 0.12 0.12 74 1009.7
20260502205027 53 360 0.0 2.0 0.00 0.12 0.12 74 1009.6
20260502204544 53 59 1.0 3.0 0.00 0.12 0.12 75 1009.6
20260502204026 53 360 0.0 3.0 0.00 0.12 0.12 75 1009.6
20260502203527 53 4 0.0 2.0 0.00 0.12 0.12 74 1009.5
20260502203038 54 28 0.0 2.0 0.00 0.12 0.12 74 1009.5
20260502202527 54 0 0.0 3.0 0.00 0.12 0.12 73 1009.5
20260502202028 55 342 0.0 3.0 0.00 0.12 0.12 71 1009.5
20260502201550 55 216 0.0 4.0 0.00 0.12 0.12 69 1009.5
20260502201027 56 163 0.0 4.0 0.00 0.12 0.12 67 1009.5
20260502200528 56 271 1.0 7.0 0.00 0.12 0.12 67 1009.5
20260502200043 56 238 1.0 7.0 0.00 0.12 0.12 68 1009.3
20260502195527 56 151 1.0 5.0 0.00 0.12 0.12 67 1009.5
20260502195027 55 0 1.0 5.0 0.00 0.12 0.12 68 1009.4
20260502194541 56 133 0.0 2.0 0.00 0.12 0.12 67 1009.5
20260502194027 56 135 0.0 3.0 0.00 0.12 0.12 66 1009.5
20260502193528 56 0 1.0 4.0 0.00 0.12 0.12 65 1009.6
20260502193037 56 157 1.0 4.0 0.00 0.12 0.12 64 1009.7
20260502192528 56 165 1.0 5.0 0.00 0.12 0.12 64 1009.7
20260502192027 57 154 1.0 5.0 0.00 0.12 0.12 62 1009.7
20260502191550 57 170 1.0 5.0 0.00 0.12 0.12 60 1009.8
20260502191030 57 162 1.0 5.0 0.00 0.12 0.12 60 1009.7
20260502190527 58 168 1.0 5.0 0.00 0.12 0.12 59 1009.7
20260502190041 58 113 2.0 6.0 0.00 0.12 0.12 57 1009.6
20260502185529 58 249 2.0 7.0 0.00 0.12 0.12 60 1009.7
20260502185027 58 157 2.0 7.0 0.00 0.12 0.12 57 1009.8
20260502184548 58 207 2.0 7.0 0.00 0.12 0.12 57 1009.9
20260502184028 59 198 2.0 6.0 0.00 0.12 0.12 55 1009.9
20260502183527 59 281 1.0 6.0 0.00 0.12 0.12 56 1009.9
20260502183101 59 153 1.0 5.0 0.00 0.12 0.12 55 1009.9
20260502182527 59 0 2.0 7.0 0.00 0.12 0.12 56 1009.9
20260502182027 58 205 3.0 7.0 0.00 0.12 0.12 56 1009.9
20260502181544 58 109 2.0 6.0 0.00 0.12 0.12 57 1010.1
20260502181029 58 292 2.0 6.0 0.00 0.12 0.12 58 1010.1
20260502180528 57 165 2.0 5.0 0.00 0.12 0.12 59 1010.1
20260502164028 56 179 1.0 4.0 0.00 0.12 0.12 70 1010.6
20260502163526 56 121 1.0 4.0 0.00 0.12 0.12 71 1010.6
20260502163045 55 236 1.0 4.0 0.00 0.12 0.12 76 1010.8
20260502162528 54 181 1.0 4.0 0.00 0.12 0.12 73 1010.9
20260502162030 54 239 1.0 4.0 0.00 0.12 0.12 73 1011.1
20260502161539 54 165 1.0 3.0 0.00 0.12 0.12 76 1011.2
20260502161025 55 138 1.0 3.0 0.00 0.12 0.12 75 1011.2
20260502160531 55 150 1.0 4.0 0.00 0.12 0.12 75 1011.3
20260502152027 51 226 0.0 1.0 0.00 0.12 0.12 81 1011.2
20260502151538 51 0 0.0 1.0 0.00 0.12 0.12 80 1011.2
20260502151027 51 0 0.0 1.0 0.00 0.12 0.12 82 1011.2
20260502150525 50 0 0.0 1.0 0.00 0.12 0.12 82 1011.2
20260502130527 45 81 0.0 2.0 0.03 0.12 0.12 91 1012.0
20260502123527 45 329 1.0 3.0 0.07 0.12 0.12 92 1012.2
20260502123039 45 0 0.0 1.0 0.07 0.11 0.11 92 1012.2
20260502122528 45 32 0.0 2.0 0.06 0.10 0.10 91 1012.1
20260502122026 45 0 0.0 2.0 0.07 0.10 0.10 92 1012.2
20260502121546 45 345 0.0 2.0 0.07 0.09 0.09 92 1012.0
20260502121026 45 336 0.0 1.0 0.08 0.09 0.09 92 1012.1
20260502120527 45 0 0.0 1.0 0.08 0.09 0.09 92 1012.0
20260502115528 45 0 0.0 2.0 0.08 0.09 0.09 91 1011.9
20260502115028 45 0 0.0 2.0 0.07 0.08 0.08 91 1012.1
20260502114542 45 1 0.0 2.0 0.06 0.07 0.07 90 1012.2
20260502114026 45 0 0.0 0.0 0.05 0.06 0.06 90 1012.3
20260502113526 45 0 0.0 0.0 0.04 0.05 0.05 89 1012.4
20260502113038 45 0 0.0 0.0 0.03 0.04 0.04 89 1012.3
20260502112528 45 0 0.0 0.0 0.03 0.04 0.04 89 1012.3
20260502112025 45 0 0.0 0.0 0.02 0.03 0.03 88 1012.0
20260502111538 45 0 0.0 0.0 0.01 0.02 0.02 87 1011.8
20260502111027 45 0 0.0 2.0 0.00 0.01 0.01 86 1011.6
20260502110526 46 0 0.0 2.0 0.00 0.01 0.01 86 1011.4
20260502110036 45 0 0.0 2.0 0.00 0.01 0.01 86 1011.4
20260502105526 45 348 0.0 2.0 0.00 0.01 0.01 86 1010.9
20260502105027 45 0 0.0 2.0 0.00 0.01 0.01 85 1010.6
20260502104541 45 314 0.0 2.0 0.00 0.01 0.01 85 1010.9
20260502104026 45 0 0.0 1.0 0.01 0.01 0.01 87 1011.0
20260502103529 45 0 0.0 0.0 0.01 0.01 0.01 89 1011.1
20260502103042 44 0 0.0 0.0 0.01 0.01 0.01 89 1010.9
20260502102526 44 0 0.0 0.0 0.01 0.01 0.01 89 1011.0
20260502102026 44 0 0.0 0.0 0.01 0.01 0.01 89 1010.9
20260502101545 44 0 0.0 0.0 0.01 0.01 0.01 89 1010.7
20260502101027 44 0 0.0 1.0 0.01 0.01 0.01 89 1010.7
20260502100528 44 0 0.0 1.0 0.01 0.01 0.01 88 1010.7
20260502091027 44 0 0.0 0.0 0.00 0.00 0.00 85 1010.6
20260502090526 44 0 0.0 0.0 0.00 0.00 0.00 84 1010.6
20260502071025 45 0 0.0 1.0 0.00 0.00 0.00 76 1010.9
20260502070530 45 0 0.0 0.0 0.00 0.00 0.00 76 1011.1
20260502070041 45 0 0.0 0.0 0.00 0.00 0.00 77 1011.2
20260502065528 45 0 0.0 0.0 0.00 0.00 0.00 77 1011.1
20260502065029 44 0 0.0 0.0 0.00 0.00 0.00 79 1011.3
20260502064538 44 0 0.0 0.0 0.00 0.00 0.00 78 1011.3
20260502064025 44 0 0.0 0.0 0.00 0.00 0.00 79 1011.1
20260502063528 44 0 0.0 1.0 0.00 0.00 0.00 78 1011.0
20260502063041 44 200 0.0 1.0 0.00 0.00 0.00 79 1011.0
20260502062525 44 0 0.0 0.0 0.00 0.00 0.00 78 1010.6
20260502062027 44 0 0.0 0.0 0.00 0.00 0.00 78 1010.5
20260502061541 44 0 0.0 0.0 0.00 0.00 0.00 77 1010.4
20260502061028 44 0 0.0 0.0 0.00 0.00 0.00 77 1010.4
20260502060525 44 0 0.0 0.0 0.00 0.00 0.00 77 1010.5
20260502060039 44 0 0.0 0.0 0.00 0.00 0.00 77 1010.5
20260502055525 44 0 0.0 0.0 0.00 0.00 0.00 77 1010.7
20260502055028 44 0 0.0 0.0 0.00 0.00 0.00 77 1010.7
20260502054544 44 0 0.0 0.0 0.00 0.00 0.00 77 1010.8
20260502054028 43 0 0.0 0.0 0.00 0.00 0.00 77 1010.7
20260502053527 43 0 0.0 0.0 0.00 0.00 0.00 75 1010.8
20260502053051 44 0 0.0 0.0 0.00 0.00 0.00 75 1010.8
20260502052527 44 0 0.0 0.0 0.00 0.00 0.00 75 1010.9
20260502052027 44 0 0.0 0.0 0.00 0.00 0.00 74 1010.8
20260502051543 45 0 0.0 0.0 0.00 0.00 0.00 75 1010.9
20260502051028 45 0 0.0 0.0 0.00 0.00 0.00 74 1010.9
20260502050529 45 0 0.0 0.0 0.00 0.00 0.00 74 1010.9
20260502050039 45 0 0.0 0.0 0.00 0.00 0.00 73 1010.7
20260502045530 45 0 0.0 1.0 0.00 0.00 0.00 73 1010.7
20260502045031 46 0 0.0 1.0 0.00 0.00 0.00 73 1010.8
20260502044538 46 0 0.0 1.0 0.00 0.00 0.00 74 1010.9
20260502044031 46 279 0.0 0.0 0.00 0.00 0.00 72 1011.1
20260502043527 46 0 0.0 0.0 0.00 0.00 0.00 72 1011.1
20260502043036 46 0 0.0 0.0 0.00 0.00 0.00 72 1011.1
20260502042526 46 0 0.0 0.0 0.00 0.00 0.00 72 1011.1
20260502042028 46 0 0.0 0.0 0.00 0.00 0.00 71 1011.1
20260502041601 46 0 0.0 0.0 0.00 0.00 0.00 71 1011.1
20260502041026 46 0 0.0 0.0 0.00 0.00 0.00 71 1011.1
20260502040528 46 0 0.0 0.0 0.00 0.00 0.00 70 1011.1
20260502040112 46 0 0.0 0.0 0.00 0.00 0.00 69 1011.0
20260502035527 46 0 0.0 0.0 0.00 0.00 0.00 69 1011.0
20260502035027 46 0 0.0 0.0 0.00 0.00 0.00 68 1011.0
20260502034542 46 0 0.0 0.0 0.00 0.00 0.00 69 1011.0
20260502034025 46 0 0.0 0.0 0.00 0.00 0.00 69 1011.0
20260502033526 46 0 0.0 0.0 0.00 0.00 0.00 68 1011.0
20260502033053 46 0 0.0 0.0 0.00 0.00 0.00 68 1011.0
20260502032527 46 0 0.0 0.0 0.00 0.00 0.00 68 1011.0
20260502032025 46 0 0.0 0.0 0.00 0.00 0.00 68 1010.9
20260502031538 46 0 0.0 0.0 0.00 0.00 0.00 68 1010.9
20260502031028 45 0 0.0 0.0 0.00 0.00 0.00 67 1010.9
20260502030527 45 0 0.0 0.0 0.00 0.00 0.00 66 1010.7
20260502030037 45 0 0.0 0.0 0.00 0.00 0.00 65 1010.9
20260502025532 45 0 0.0 0.0 0.00 0.00 0.00 64 1010.9
20260502025025 45 0 0.0 0.0 0.00 0.00 0.00 65 1010.9
20260502024542 45 0 0.0 0.0 0.00 0.00 0.00 66 1010.9
20260502024028 45 0 0.0 0.0 0.00 0.00 0.00 66 1010.9
20260502023528 45 0 0.0 0.0 0.00 0.00 0.00 65 1010.8
20260502023039 44 0 0.0 0.0 0.00 0.00 0.00 67 1010.9
20260502022530 44 0 0.0 0.0 0.00 0.00 0.00 66 1010.8
20260502022027 45 0 0.0 0.0 0.00 0.00 0.00 67 1010.9
20260502021540 44 0 0.0 0.0 0.00 0.00 0.00 66 1010.9
20260502021027 44 0 0.0 0.0 0.00 0.00 0.00 66 1010.9
20260502020527 44 0 0.0 0.0 0.00 0.00 0.00 67 1010.9
20260502020038 44 0 0.0 0.0 0.00 0.00 0.00 68 1010.9
20260502015527 44 0 0.0 0.0 0.00 0.00 0.00 66 1010.9
20260502015028 45 0 0.0 0.0 0.00 0.00 0.00 64 1010.9
20260502014538 45 0 0.0 0.0 0.00 0.00 0.00 64 1010.9
20260502014028 45 0 0.0 0.0 0.00 0.00 0.00 62 1010.9
20260502013527 46 0 0.0 0.0 0.00 0.00 0.00 63 1010.9
20260502013044 46 0 0.0 0.0 0.00 0.00 0.00 64 1010.9
20260502012526 46 0 0.0 0.0 0.00 0.00 0.00 63 1010.8
20260502012026 46 0 0.0 0.0 0.00 0.00 0.00 63 1010.7
20260502011544 47 0 0.0 1.0 0.00 0.00 0.00 62 1010.7
20260502011026 47 0 0.0 1.0 0.00 0.00 0.00 62 1010.7
20260502010525 47 0 0.0 0.0 0.00 0.00 0.00 59 1010.8
20260502010040 47 0 0.0 0.0 0.00 0.00 0.00 60 1010.7
20260502005527 48 0 0.0 0.0 0.00 0.00 0.00 60 1010.7
20260502005027 48 0 0.0 0.0 0.00 0.00 0.00 59 1010.6
20260502004538 49 0 0.0 0.0 0.00 0.00 0.00 58 1010.5
20260502004027 49 0 0.0 0.0 0.00 0.00 0.00 58 1010.4
20260502003526 50 0 0.0 0.0 0.00 0.00 0.00 57 1010.4
20260502003038 50 0 0.0 0.0 0.00 0.00 0.00 56 1010.3
20260502002532 50 0 0.0 0.0 0.00 0.00 0.00 56 1010.3